Wind_Speed
22 22 23 22 21 20 18 16 14 14 13 12 11 10 11 11 11 10 9 7 7 5 4 3 2 3 3 3 3 4 5 5 5 6 7 8 9 10 11 12 14 15 17 17
21 21 22 22 21 19 18 16 15 14 13 12 12 12 12 11 11 11 11 10 8 7 7 6 5 4 3 2 1 1 3 5 6 7 8 9 10 11 12 14 15 16 17 18
21 21 20 21 20 19 17 15 14 14 13 13 13 13 12 11 10 10 10 10 9 8 8 7 6 5 5 4 4 5 5 6 8 9 9 10 12 13 13 14 15 16 17 18
21 21 20 19 18 17 16 14 13 12 12 11 11 11 11 11 10 10 10 9 9 9 8 8 7 6 6 6 6 7 8 9 11 12 12 13 14 15 15 16 16 17 18 18
22 21 20 19 18 16 14 13 13 12 11 11 10 10 9 9 9 9 9 9 9 9 9 9 8 8 8 8 9 9 10 11 12 13 14 15 16 17 17 18 18 19 19 19
22 21 21 20 18 16 14 12 12 11 10 9 9 8 8 8 7 7 7 8 8 9 9 9 10 10 10 10 10 11 11 12 13 14 15 16 16 17 17 18 18 19 19 20
22 22 21 20 18 16 14 13 12 12 10 9 8 8 8 7 6 6 6 7 8 8 9 10 10 11 11 11 11 12 12 13 14 14 15 15 16 16 17 17 18 18 19 19
21 21 21 20 18 17 14 13 12 12 12 10 8 8 7 7 6 6 6 7 7 9 10 10 11 11 12 12 12 13 13 13 14 14 15 15 15 15 16 16 17 18 18 18
20 20 20 21 19 17 15 14 13 13 12 11 9 8 8 7 6 6 6 7 8 9 11 11 12 12 13 13 13 13 13 13 13 13 13 13 13 13 13 14 14 15 15 16
18 19 20 21 19 18 17 16 15 13 13 12 10 9 8 7 6 5 6 7 8 10 10 11 12 13 14 14 14 14 14 13 13 12 12 10 10 10 11 11 11 11 12 12
17 17 19 20 19 19 18 18 16 15 13 12 11 10 8 7 6 6 6 7 8 9 10 12 13 14 14 15 15 15 14 14 13 12 11 10 9 9 8 8 7 7 7 8
17 17 18 18 19 19 19 19 18 17 15 14 13 10 8 6 5 5 5 6 8 9 10 11 13 14 15 15 16 16 15 15 14 13 12 11 10 9 8 7 7 6 5 5
15 16 16 17 18 19 19 20 20 19 18 16 13 10 8 5 4 5 5 6 7 8 10 11 13 14 15 16 16 16 16 16 15 14 13 12 11 10 10 9 9 8 7 6
14 15 15 15 17 18 19 20 20 20 20 17 13 10 7 5 4 4 5 6 7 8 10 11 13 14 15 15 16 17 17 16 15 15 14 13 13 13 12 12 11 11 10 10
14 14 14 14 15 17 18 19 20 20 20 17 13 10 7 6 5 5 5 6 7 8 10 11 12 13 14 15 16 17 17 16 16 15 15 14 14 14 14 14 14 13 13 13
13 13 13 13 14 15 17 18 19 19 18 16 14 11 8 7 6 5 5 6 7 8 9 10 11 12 13 14 15 16 16 16 16 16 16 15 15 15 15 15 15 15 15 14
13 12 12 12 12 13 15 16 17 18 17 15 13 11 9 7 6 5 5 6 6 7 8 9 10 11 12 13 14 14 15 15 15 15 16 16 15 15 15 15 15 15 15 15
14 13 12 11 11 11 13 14 15 15 15 14 13 11 9 7 6 5 5 5 6 6 7 8 9 10 11 11 13 13 14 14 15 15 15 16 16 15 15 15 15 15 15 15
15 14 12 11 11 10 11 12 12 13 13 12 12 10 8 6 5 5 5 5 5 6 6 7 8 9 9 10 11 12 13 14 14 14 15 15 15 15 15 15 15 15 15 15
16 15 14 12 11 10 10 10 10 11 10 10 9 9 7 5 4 4 3 3 4 4 5 6 6 7 8 8 9 10 11 12 13 13 14 14 14 14 14 15 14 14 14 14
18 17 15 14 13 12 10 10 9 9 9 8 8 7 6 5 3 2 1 1 2 3 3 4 5 5 6 6 7 8 9 10 10 11 12 12 13 13 13 13 13 14 13 13
21 19 18 16 15 14 13 11 9 8 8 7 7 6 6 5 4 3 3 3 2 3 3 3 3 4 4 5 5 6 6 8 8 9 9 10 11 11 12 12 12 12 13 13
24 22 20 19 18 17 15 14 12 10 9 8 7 7 6 5 5 4 5 5 6 5 5 4 4 3 4 4 4 4 4 5 6 7 8 8 9 9 9 10 10 10 11 11
28 26 24 22 21 20 18 17 15 13 12 10 9 8 7 7 6 6 6 6 7 8 8 7 6 6 5 5 4 4 4 4 5 6 6 7 7 8 8 8 8 8 9 9
32 30 28 26 25 23 22 20 19 18 16 14 13 11 10 9 9 8 8 7 8 8 9 10 10 9 8 7 6 6 5 4 5 5 5 6 6 7 7 7 7 7 7 7
37 35 33 31 29 28 26 25 23 22 20 18 17 15 13 12 11 11 10 9 9 9 10 11 12 12 11 10 9 8 7 6 6 6 6 6 6 6 6 6 6 6 6 6
41 40 38 37 35 33 32 30 28 26 25 23 21 19 18 16 15 14 13 12 11 11 11 11 12 13 13 13 12 11 10 9 8 8 7 7 7 6 6 6 6 5 5 5
Wind_Direction
23 24 26 27 31 35 40 44 45 44 48 50 49 49 53 57 62 67 70 75 83 84 91 88 106 174 186 203 216 226 236 251 258 268 271 271 272 270 271 272 269 269 269 271
23 24 25 28 31 33 37 42 44 47 50 51 51 50 53 56 58 59 61 60 63 65 65 57 56 62 59 32 354 307 289 279 277 281 284 280 278 278 276 275 273 272 271 270
20 19 22 26 27 30 34 39 41 43 45 48 47 48 47 49 49 50 48 45 44 45 46 43 38 33 24 9 339 318 306 298 293 293 289 284 282 281 277 277 275 272 270 268
18 17 20 20 23 25 29 34 36 38 37 39 38 41 42 43 45 46 47 44 42 40 35 30 23 12 358 344 332 317 308 305 301 298 295 291 286 283 280 278 276 275 271 269
17 17 18 18 18 20 24 29 30 31 31 31 32 35 35 35 34 33 33 33 32 30 24 18 11 1 351 341 331 322 315 309 304 300 296 291 288 285 282 279 277 275 272 270
17 15 16 14 15 17 19 22 22 23 20 19 22 23 23 22 20 20 21 20 19 16 11 5 360 354 346 339 331 324 317 312 307 302 297 292 288 285 283 281 278 275 272 270
16 15 15 14 14 15 17 14 12 12 11 9 9 9 8 10 12 13 11 10 10 8 3 359 355 351 344 338 332 325 319 313 308 303 299 295 291 288 285 282 279 276 274 272
15 15 15 15 16 16 16 13 10 6 3 2 0 358 357 359 1 1 4 8 8 6 2 358 356 353 348 343 338 333 327 321 316 310 305 301 297 293 289 285 281 278 275 273
14 15 14 14 15 14 14 11 7 3 359 354 351 347 349 352 351 350 358 2 3 3 3 2 0 358 354 350 346 342 337 332 328 323 317 310 304 300 296 292 287 283 279 276
7 8 9 10 12 12 11 9 5 359 355 349 343 342 345 349 350 348 351 357 2 4 6 8 7 5 2 359 356 354 351 348 345 340 335 329 322 316 310 305 299 293 286 282
359 359 2 6 9 10 10 8 5 360 355 350 343 340 340 345 351 349 349 358 4 9 11 12 11 11 9 8 7 5 4 3 1 359 357 354 349 344 340 333 325 316 307 298
355 356 357 1 4 6 7 6 3 2 358 354 351 346 344 346 350 353 360 7 11 15 17 17 17 16 16 15 16 16 16 15 14 14 16 16 15 13 11 6 2 357 348 336
348 351 354 358 360 2 4 5 5 4 1 356 355 355 356 2 4 2 9 14 17 21 23 22 21 20 21 21 22 23 23 25 27 30 32 33 33 33 32 31 31 31 30 30
340 345 349 354 358 0 3 5 7 6 3 1 3 7 13 26 30 26 26 26 27 28 27 26 25 25 27 27 27 28 30 34 36 39 41 43 44 45 46 46 47 49 51 54
331 337 342 346 353 359 3 7 9 9 8 10 16 26 40 52 55 53 48 40 36 32 30 30 29 30 32 32 32 34 36 39 42 44 46 48 50 52 53 55 56 57 58 61
320 326 333 339 346 354 0 6 10 13 15 19 28 38 49 58 63 64 55 46 40 35 33 33 33 35 36 36 36 37 39 42 45 47 49 52 53 55 57 58 59 60 61 63
310 314 322 329 337 345 354 2 8 13 18 22 28 37 49 63 65 63 56 49 45 40 36 35 35 37 37 37 38 40 42 44 47 50 51 53 55 56 58 59 60 61 63 64
300 302 307 318 325 333 344 354 3 10 15 19 24 33 48 60 60 63 59 53 50 46 40 36 35 37 39 39 40 42 43 45 48 51 53 54 55 57 58 59 60 61 62 64
292 293 294 300 310 321 331 342 354 2 9 14 21 29 40 49 57 64 64 61 54 45 39 35 35 36 38 40 42 42 44 47 49 51 52 54 55 56 57 58 59 60 62 63
284 284 284 284 290 302 316 328 338 350 360 7 14 20 27 36 49 61 62 57 44 37 32 30 30 31 35 39 41 42 43 45 48 50 51 53 55 55 56 57 58 58 60 61
277 277 276 273 275 282 294 308 319 332 345 353 359 3 6 8 10 7 14 14 8 7 12 16 18 20 25 31 34 36 37 39 42 44 47 50 52 54 54 55 55 56 57 59
271 270 269 268 266 269 275 283 294 306 319 330 338 342 342 340 334 308 284 283 293 303 318 335 347 355 3 13 20 25 29 32 33 36 39 43 46 48 50 52 54 54 55 56
266 265 264 263 262 262 264 268 272 279 291 302 310 316 316 313 309 304 286 273 270 273 279 287 298 309 321 333 347 359 8 15 20 23 27 31 35 38 41 45 49 51 53 53
263 262 260 259 259 259 259 259 261 264 269 277 285 291 295 294 290 286 287 282 271 266 265 267 272 279 286 293 301 312 327 342 354 3 8 13 19 24 28 33 38 43 47 49
259 259 258 256 255 255 255 255 256 257 259 263 267 273 278 280 279 279 276 276 275 270 264 262 263 265 268 272 276 281 290 304 320 333 342 349 357 5 11 17 23 30 36 41
256 255 255 254 253 252 252 252 253 253 254 256 258 261 264 268 272 272 272 271 269 270 268 264 262 261 260 261 263 267 271 279 290 302 313 321 329 340 351 359 5 11 18 25
254 254 253 252 252 251 250 250 250 251 251 251 252 255 257 259 263 266 267 268 269 269 268 267 263 259 255 255 256 259 262 267 273 281 289 297 304 312 321 332 341 347 353 1
Height
5836 5831 5825 5820 5815 5811 5808 5804 5802 5799 5796 5795 5793 5790 5788 5787 5785 5784 5782 5781 5781 5780 5779 5779 5778 5778 5778 5779 5779 5780 5780 5781 5782 5783 5783 5784 5784 5785 5785 5785 5785 5786 5786 5785
5837 5832 5828 5823 5818 5814 5810 5808 5805 5803 5801 5798 5796 5794 5792 5790 5789 5787 5786 5784 5783 5782 5781 5781 5780 5779 5779 5779 5779 5780 5780 5780 5781 5781 5781 5781 5781 5781 5781 5781 5781 5781 5781 5781
5839 5834 5830 5825 5821 5817 5813 5811 5808 5806 5805 5801 5799 5797 5795 5794 5792 5791 5789 5788 5787 5785 5784 5783 5782 5781 5781 5781 5780 5780 5780 5780 5779 5779 5778 5778 5778 5777 5777 5777 5777 5776 5776 5776
5840 5836 5831 5829 5823 5819 5816 5813 5811 5808 5806 5804 5802 5800 5798 5797 5795 5794 5792 5791 5789 5788 5787 5785 5784 5783 5782 5781 5780 5779 5778 5778 5777 5776 5775 5774 5774 5773 5773 5772 5772 5771 5771 5771
5840 5836 5832 5829 5824 5820 5818 5815 5813 5811 5809 5806 5805 5803 5801 5799 5797 5796 5794 5793 5791 5790 5788 5787 5785 5784 5782 5781 5779 5778 5777 5775 5774 5773 5772 5771 5770 5769 5768 5767 5766 5766 5766 5765
5841 5837 5833 5830 5825 5821 5820 5817 5814 5812 5810 5808 5806 5805 5803 5800 5798 5797 5795 5794 5792 5791 5789 5787 5786 5784 5782 5780 5778 5776 5775 5773 5771 5770 5768 5767 5765 5764 5763 5762 5761 5760 5760 5759
5842 5838 5834 5830 5825 5822 5821 5819 5815 5812 5810 5808 5806 5805 5803 5801 5799 5798 5796 5795 5793 5791 5790 5788 5786 5784 5782 5779 5777 5775 5773 5770 5768 5766 5764 5763 5761 5759 5758 5756 5755 5754 5754 5753
5844 5839 5837 5830 5826 5824 5821 5817 5815 5812 5810 5808 5806 5804 5802 5801 5799 5798 5796 5795 5793 5792 5790 5788 5786 5783 5781 5778 5775 5773 5770 5767 5765 5762 5760 5758 5756 5754 5752 5751 5750 5749 5748 5748
5846 5843 5837 5832 5827 5824 5820 5817 5815 5812 5810 5807 5805 5803 5801 5800 5798 5797 5796 5795 5793 5792 5790 5787 5785 5782 5780 5777 5774 5771 5768 5765 5762 5759 5756 5754 5752 5750 5748 5747 5745 5744 5743 5742
5846 5842 5838 5833 5828 5824 5820 5817 5814 5811 5809 5806 5804 5802 5800 5799 5798 5797 5796 5794 5793 5791 5789 5787 5785 5782 5779 5776 5773 5769 5766 5763 5759 5756 5753 5751 5749 5747 5745 5743 5742 5740 5739 5738
5846 5843 5838 5834 5830 5825 5821 5817 5814 5810 5808 5805 5802 5800 5798 5797 5796 5796 5795 5794 5792 5791 5789 5787 5785 5782 5779 5775 5772 5769 5765 5762 5758 5755 5752 5749 5747 5745 5743 5741 5739 5738 5737 5735
5846 5843 5839 5835 5830 5826 5822 5818 5813 5809 5806 5803 5800 5798 5796 5795 5795 5794 5794 5793 5792 5791 5789 5787 5785 5782 5779 5776 5772 5769 5765 5762 5758 5755 5752 5750 5747 5745 5743 5741 5739 5737 5736 5734
5845 5842 5838 5835 5831 5827 5822 5818 5813 5809 5805 5801 5798 5796 5795 5794 5794 5793 5793 5793 5792 5791 5790 5788 5786 5783 5780 5777 5773 5770 5766 5763 5760 5756 5754 5751 5749 5747 5744 5742 5740 5738 5736 5734
5844 5841 5838 5834 5831 5827 5823 5819 5814 5810 5805 5801 5797 5795 5794 5793 5794 5794 5794 5793 5793 5792 5790 5789 5787 5784 5781 5778 5775 5772 5768 5765 5762 5759 5756 5754 5751 5749 5747 5744 5742 5740 5738 5736
5842 5840 5837 5834 5831 5828 5824 5820 5816 5811 5806 5801 5798 5795 5794 5794 5794 5794 5794 5794 5793 5793 5792 5790 5788 5786 5783 5781 5778 5775 5771 5768 5765 5762 5759 5757 5755 5752 5750 5748 5746 5744 5741 5739
5840 5838 5836 5833 5831 5828 5825 5821 5817 5813 5808 5804 5800 5797 5796 5796 5795 5795 5795 5795 5795 5794 5793 5792 5790 5788 5786 5783 5780 5778 5775 5771 5769 5766 5763 5761 5758 5756 5754 5752 5750 5748 5745 5744
5837 5836 5834 5832 5830 5828 5825 5822 5818 5814 5810 5806 5803 5800 5798 5797 5797 5797 5796 5796 5796 5795 5794 5793 5792 5790 5788 5786 5783 5781 5778 5775 5772 5770 5767 5765 5762 5760 5758 5756 5754 5752 5750 5748
5834 5833 5832 5830 5829 5827 5824 5822 5819 5816 5812 5809 5806 5802 5800 5799 5799 5798 5798 5797 5797 5797 5796 5795 5794 5792 5790 5788 5786 5783 5781 5778 5776 5773 5771 5769 5766 5764 5762 5760 5758 5756 5754 5752
5830 5829 5829 5828 5826 5825 5823 5821 5819 5816 5814 5811 5808 5805 5803 5801 5800 5800 5799 5799 5799 5798 5798 5797 5795 5794 5792 5791 5789 5786 5784 5782 5779 5777 5775 5772 5770 5768 5766 5764 5762 5760 5759 5757
5825 5825 5825 5824 5823 5823 5821 5820 5818 5816 5814 5811 5809 5807 5805 5803 5802 5801 5801 5800 5800 5799 5799 5798 5797 5796 5794 5793 5791 5789 5787 5785 5783 5781 5778 5776 5774 5772 5770 5768 5766 5764 5762 5761
5820 5820 5820 5820 5819 5819 5818 5817 5816 5815 5813 5811 5809 5807 5806 5804 5803 5802 5801 5801 5800 5800 5799 5798 5798 5797 5796 5794 5793 5791 5789 5787 5785 5784 5782 5779 5777 5775 5773 5771 5770 5768 5766 5764
5814 5814 5814 5814 5814 5815 5814 5814 5813 5812 5811 5810 5808 5807 5805 5804 5803 5802 5801 5801 5800 5799 5799 5798 5798 5797 5796 5795 5794 5792 5791 5789 5788 5786 5784 5782 5780 5778 5776 5775 5773 5771 5769 5768
5806 5807 5808 5808 5809 5809 5809 5809 5809 5809 5808 5807 5806 5805 5804 5802 5801 5800 5800 5799 5799 5798 5798 5797 5797 5796 5796 5795 5794 5793 5792 5790 5789 5787 5786 5784 5782 5781 5779 5777 5775 5773 5772 5770
5798 5799 5801 5801 5802 5803 5803 5804 5804 5804 5804 5804 5803 5802 5801 5800 5799 5798 5798 5797 5796 5796 5796 5796 5795 5795 5794 5794 5793 5792 5792 5791 5789 5788 5787 5785 5784 5782 5780 5779 5777 5775 5774 5772
5788 5790 5792 5793 5794 5795 5796 5797 5798 5798 5799 5799 5799 5798 5798 5797 5796 5796 5795 5794 5793 5793 5793 5792 5792 5792 5792 5792 5791 5791 5790 5790 5789 5788 5787 5786 5784 5783 5781 5780 5778 5776 5775 5773
5777 5779 5782 5783 5785 5787 5788 5789 5790 5791 5792 5793 5793 5793 5793 5793 5792 5792 5791 5791 5790 5789 5789 5788 5788 5788 5788 5788 5789 5789 5788 5788 5787 5787 5786 5785 5784 5783 5781 5780 5778 5777 5776 5774
5764 5767 5769 5772 5774 5776 5778 5780 5781 5783 5784 5785 5786 5787 5787 5787 5787 5787 5787 5786 5786 5785 5785 5784 5784 5783 5784 5784 5785 5785 5785 5785 5785 5784 5784 5783 5783 5782 5781 5779 5778 5777 5776 5774